RH
100 99 99 100 99 100 100 100 100 98 96 94 94 99 99 100 98 98 99 99 96 87 80 78 77 76 73
100 100 99 99 99 99 99 98 98 98 98 99 98 99 99 98 99 97 93 85 83 81 80 79 77 78 76
100 99 100 97 98 99 99 99 96 98 97 99 98 97 95 87 82 81 82 83 88 89 88 87 85 82 80
97 98 91 96 95 95 95 90 77 69 67 68 72 73 73 76 82 88 93 92 92 87 86 86 85 83 80
80 82 85 80 77 77 74 70 67 65 61 59 56 53 49 52 53 57 59 60 80 88 89 85 83 82 78
82 81 78 75 74 73 69 68 68 67 63 55 56 52 51 52 55 56 60 86 92 92 91 90 82 88 86
68 76 77 76 74 72 72 71 71 68 73 66 61 60 64 65 63 59 58 80 94 96 92 88 93 94 94
69 69 73 78 78 82 85 86 84 84 82 84 76 68 65 63 59 64 92 97 97 91 83 91 96 96 94
84 87 85 81 91 90 88 91 85 77 84 88 92 82 72 68 75 98 99 95 76 66 93 95 96 96 94
70 71 69 69 74 79 81 83 81 82 92 91 91 93 86 76 78 76 80 74 67 68 72 87 98 96 84
70 71 75 84 88 89 92 93 91 86 90 97 89 86 88 88 82 77 73 69 62 58 68 74 75 94 90
73 77 86 88 88 88 92 97 92 96 90 95 98 92 90 96 92 82 82 82 77 76 81 78 71 75 89
82 84 89 92 91 96 95 96 96 97 94 88 93 94 99 99 97 94 96 97 100 90 80 73 76 73 70
90 90 93 95 92 93 91 91 91 90 89 87 91 95 97 95 89 99 98 98 92 98 100 97 74 73 72
91 89 88 91 88 88 89 89 95 94 89 80 82 88 93 96 100 100 93 95 93 100 100 97 85 79 76
89 89 91 91 90 88 90 94 99 97 93 85 85 88 87 79 77 81 86 86 96 100 94 100 97 73 76
89 90 92 90 93 89 88 95 98 96 91 88 91 99 98 95 79 82 82 80 85 89 84 88 94 75 81
Wind_Speed
3 6 5 2 2 3 6 8 6 8 11 13 14 9 10 12 12 8 8 10 12 12 12 12 12 12 12
3 6 4 3 1 3 5 7 10 11 12 12 12 13 14 11 7 7 8 10 11 11 11 10 11 11 12
3 4 4 5 3 1 2 5 5 4 5 4 4 5 6 6 7 8 10 10 9 6 9 11 10 10 12
5 4 6 6 4 3 2 2 2 1 2 4 6 9 11 10 8 9 10 9 9 9 11 11 8 9 11
7 4 4 4 4 3 1 2 1 2 5 7 10 12 11 11 12 11 10 10 9 9 9 9 10 11 12
6 4 4 4 3 2 3 2 2 2 8 10 10 10 10 9 9 9 9 9 8 9 9 9 10 10 11
5 4 3 3 2 3 3 4 4 8 10 8 6 7 5 5 7 9 11 10 9 7 7 7 10 12 12
6 5 5 5 4 3 3 5 8 6 4 3 6 9 8 9 10 5 1 5 6 7 9 10 11 13 14
3 2 2 3 4 3 5 8 3 3 5 5 7 15 12 8 4 5 2 4 5 8 9 12 13 15 17
2 2 2 1 2 4 5 5 4 3 6 8 8 9 7 2 1 4 10 12 11 11 16 16 15 16 18
2 2 1 1 2 2 3 3 3 5 7 6 7 10 6 8 13 14 12 10 16 18 12 12 13 10 14
3 2 1 1 3 4 6 7 8 11 11 11 9 12 15 14 11 11 21 24 14 17 15 8 8 13 15
4 4 4 6 7 7 8 8 10 11 12 12 15 17 18 18 19 21 16 13 24 7 9 18 17 14 19
5 7 7 7 9 10 12 12 14 13 10 10 12 14 18 21 24 27 21 13 17 22 22 22 21 20 22
7 8 9 12 13 12 13 13 15 17 19 14 11 14 18 21 25 25 27 25 25 22 20 24 28 26 27
10 11 13 13 15 14 13 14 17 19 20 19 17 17 16 17 17 26 24 24 21 19 21 22 27 31 25
12 13 14 16 15 16 16 17 19 20 21 19 17 14 4 5 14 16 24 24 23 25 27 27 27 34 29
Wind_Direction
341 343 341 325 273 221 218 210 225 244 257 255 254 257 249 259 255 260 260 266 269 272 273 272 275 274 274
41 28 26 47 270 258 252 252 253 252 252 261 254 253 253 261 260 261 263 263 267 267 271 271 273 278 277
99 50 56 59 53 10 281 270 276 276 255 247 273 278 269 254 258 261 267 267 259 263 277 276 274 277 280
94 89 65 70 70 54 10 353 356 322 270 256 251 251 248 252 254 242 245 255 270 273 271 270 277 275 272
80 80 54 51 54 45 45 21 345 291 277 273 273 270 268 265 260 253 256 259 261 262 261 267 275 276 280
61 61 55 41 38 39 56 14 350 358 327 311 294 284 269 259 247 249 253 256 255 261 270 272 273 274 277
49 45 35 27 35 15 339 326 303 311 319 315 304 297 250 244 252 258 254 248 258 261 254 259 273 281 284
48 44 30 8 338 327 332 323 316 304 314 275 329 318 296 286 286 285 134 170 214 247 270 282 286 285 286
23 12 333 338 319 317 333 327 337 358 341 326 346 333 318 317 198 158 193 224 279 297 294 289 288 289 283
314 298 329 305 291 290 302 319 340 352 27 355 348 354 330 352 143 245 260 265 284 283 295 288 286 285 287
30 27 31 72 41 359 346 318 301 282 319 341 303 312 298 301 312 303 285 277 289 296 297 283 280 276 293
348 339 321 246 273 286 311 303 286 283 285 288 278 283 285 289 286 303 306 307 307 303 308 262 261 287 279
316 320 308 303 308 315 303 296 288 287 287 278 276 282 282 272 278 290 305 304 306 282 308 294 291 289 291
290 313 310 306 307 312 309 310 302 301 297 288 282 282 280 278 281 281 278 271 281 290 297 299 305 296 295
284 291 297 301 301 303 299 300 291 297 303 304 291 281 275 276 277 274 278 272 277 280 286 294 297 297 301
275 282 290 294 297 298 294 292 290 292 298 307 314 315 307 300 271 271 279 283 289 286 293 286 290 300 298
275 279 285 286 286 286 290 294 291 294 296 303 304 295 272 278 281 269 271 284 291 287 287 284 280 295 300